DW8228 Weather Reports


Display with metric or nautical units.
time (UTC)temp
F
wind
direction
speed
MPH
gust
MPH
rain 1hr
in
rain 24hr
in
rain mn
in
humidity
%
barometer
mb
20260506101525 50 284 3.0 10.0 0.00 0.00 0.00 30 1013.6
20260506100021 50 271 4.0 13.0 0.00 0.00 0.00 36 1013.4
20260506094517 48 252 5.0 10.0 0.00 0.00 0.00 52 1013.2
20260506093014 47 210 9.0 12.0 0.00 0.00 0.00 53 1013.1
20260506091512 46 203 9.0 12.0 0.00 0.00 0.00 54 1012.9
20260506090010 46 212 8.0 11.0 0.00 0.00 0.00 54 1012.8
20260506084508 46 219 7.0 11.0 0.00 0.00 0.00 55 1012.8
20260506083014 46 202 10.0 13.0 0.00 0.00 0.00 57 1012.8
20260506081509 45 184 8.0 11.0 0.00 0.00 0.00 60 1012.8
20260506073001 45 177 9.0 11.0 0.00 0.00 0.00 60 1012.6
20260506071624 45 192 5.0 9.0 0.00 0.00 0.00 59 1012.4
20260506061548 42 211 6.0 7.0 0.00 0.00 0.00 59 1012.0
20260506044537 40 224 5.0 7.0 0.00 0.00 0.00 60 1011.2
20260506043031 40 242 7.0 10.0 0.00 0.00 0.00 60 1011.0
20260506041531 39 238 7.0 11.0 0.00 0.00 0.00 61 1010.9
20260506040041 39 242 6.0 12.0 0.00 0.00 0.00 61 1010.7
20260506034525 38 234 6.0 10.0 0.00 0.00 0.00 62 1010.5
20260506033027 38 233 6.0 10.0 0.00 0.00 0.00 62 1010.4
20260506031522 38 229 7.0 10.0 0.00 0.00 0.00 62 1010.3
20260506030021 38 231 7.0 10.0 0.00 0.00 0.00 61 1010.1
20260506024528 38 234 7.0 10.0 0.00 0.00 0.00 61 1010.0
20260506023017 38 233 5.0 9.0 0.00 0.00 0.00 61 1009.9
20260506021528 38 256 6.0 9.0 0.00 0.00 0.00 61 1009.8
20260506020016 38 240 7.0 12.0 0.00 0.00 0.00 60 1009.8
20260506014521 38 252 7.0 12.0 0.00 0.00 0.00 61 1009.6
20260506013009 38 247 7.0 13.0 0.00 0.00 0.00 61 1009.4
20260506011518 38 229 8.0 12.0 0.00 0.00 0.00 61 1009.2
20260506010011 38 239 7.0 13.0 0.00 0.00 0.00 62 1009.1
20260506004505 38 238 8.0 11.0 0.00 0.00 0.00 62 1009.1
20260506003001 38 234 7.0 11.0 0.00 0.00 0.00 64 1009.0
20260506001623 38 227 4.0 8.0 0.00 0.00 0.00 64 1008.9
20260506000109 38 236 6.0 8.0 0.00 0.00 0.00 64 1008.8
20260505234611 38 233 5.0 7.0 0.00 0.00 0.00 63 1008.7
20260505233052 38 233 5.0 7.0 0.00 0.00 0.00 63 1008.6
20260505231551 38 225 6.0 9.0 0.00 0.00 0.00 64 1008.5
20260505230051 39 238 6.0 9.0 0.00 0.00 0.00 65 1008.5
20260505224548 39 215 7.0 9.0 0.00 0.00 0.00 65 1008.5
20260505223057 40 209 6.0 8.0 0.00 0.00 0.00 66 1008.5
20260505221545 40 202 6.0 9.0 0.00 0.00 0.00 65 1008.4
20260505220046 40 212 5.0 8.0 0.00 0.00 0.00 65 1008.3
20260505214553 40 209 5.0 8.0 0.00 0.00 0.00 66 1008.3
20260505213043 39 210 6.0 9.0 0.00 0.00 0.00 66 1008.2
20260505211548 40 213 6.0 9.0 0.00 0.00 0.00 66 1008.2
20260505210038 40 214 7.0 9.0 0.00 0.00 0.00 64 1008.2
20260505204537 40 213 6.0 8.0 0.00 0.00 0.00 65 1008.1
20260505203049 40 204 7.0 10.0 0.00 0.00 0.00 65 1008.0
20260505201534 40 213 6.0 9.0 0.00 0.00 0.00 66 1007.9
20260505200032 40 215 6.0 9.0 0.00 0.00 0.00 65 1007.8
20260505194531 40 205 7.0 9.0 0.00 0.00 0.00 65 1007.6
20260505193130 40 213 7.0 10.0 0.00 0.00 0.00 63 1007.7
20260505191529 40 195 6.0 10.0 0.00 0.00 0.00 62 1007.7
20260505190028 40 219 8.0 11.0 0.00 0.00 0.00 59 1007.6
20260505184536 40 227 8.0 11.0 0.00 0.00 0.00 58 1007.3
20260505183035 41 207 7.0 10.0 0.00 0.00 0.00 58 1007.3
20260505181523 42 224 7.0 10.0 0.00 0.00 0.00 57 1007.1
20260505180021 42 232 8.0 12.0 0.00 0.00 0.00 56 1006.9
20260505174520 43 217 9.0 14.0 0.00 0.00 0.00 55 1006.8
20260505173019 43 215 10.0 13.0 0.00 0.00 0.00 58 1006.7
20260505171518 43 220 7.0 14.0 0.00 0.00 0.00 53 1006.7
20260505170021 44 220 9.0 14.0 0.00 0.00 0.00 54 1006.7
20260505164516 44 221 10.0 16.0 0.00 0.00 0.00 55 1006.7
20260505163014 43 193 12.0 18.0 0.00 0.00 0.00 56 1006.7
20260505161513 44 212 13.0 19.0 0.00 0.00 0.00 54 1006.5
20260505153109 47 215 12.0 16.0 0.00 0.00 0.00 42 1006.1
20260505151508 47 234 13.0 19.0 0.00 0.00 0.00 44 1006.1
20260505124554 46 200 14.0 18.0 0.00 0.00 0.00 61 1005.8
20260505123054 46 200 16.0 20.0 0.00 0.00 0.00 59 1005.6
20260505121550 46 215 15.0 19.0 0.00 0.00 0.00 57 1005.5
20260505120048 46 194 12.0 17.0 0.00 0.00 0.00 58 1005.5
20260505114544 46 207 12.0 17.0 0.00 0.00 0.00 59 1005.4
20260505113045 45 204 14.0 18.0 0.00 0.00 0.00 58 1005.4
20260505111544 45 188 12.0 17.0 0.00 0.00 0.00 59 1005.1